STARLINK-31970, 59928

Orbit data source: Space-Track

STARLINK-31970, 59928 is a payload satellite owned by SpaceX/Seattle (US) in LEO that was launched on Sat, 01 Jun 2024 UTC via an FALCON 9 launch vehicle from the Air Force Eastern Test Range (AFETR). Payload-class satellites include a variety of spacecraft equipped with specific instruments for various scientific and technological missions. These include communications satellites like Starlink; space stations such as the ISS; scientific satellites like the Hubble; Earth observation satellites from companies like Planet Labs, Umbra, and HawkEye 360; GPS; miniature CubeSats for education and research; and military/defense satellites.

Loading next visibility...
Identifier
59928, 2024-106G
Orbit
LEO
Country
Flag of USUS
Related business
Manufacturer
SpaceX/Seattle
Mission
Operational Commercial Communications
Bus & Motor
STARLINK V2M, Unknown motor
Mass
730 kg wet, ~700 kg dry
Launch date (UTC)
2024-06-01 (2 years ago)
Launch vehicle
FALCON 9
Launch site
Air Force Eastern Test Range (AFETR)
Object type
Payload
Rocket body
Debris
Shape & HBR
Box + 2 Pan, 17.7 m
Radar Cross Section
33.884 m², Large (>1 m²)

Expand to show TLE details & history
Last TLE update: 21 hours ago

TLE from 21 hours ago
0 STARLINK-31970
1 59928U 24106G   26033.39024087  .00001049  00000-0  47621-4 0  9991
2 59928  43.0009 171.9244 0001323 271.0962  88.9738 15.27580960 95173
Epoch: 2026-02-02T09:21Z
TLE epoch observation values (Epoch: 2026-02-02T09:21:56.811Z)
Latitude
-0.00001°
Longitude
-101.14854°
Altitude
482.806 km
Speed
7.626 km/s
True Right ascension
11h 27m 41s
True Declination
0° 00' 00"
Sunlit
Object was in full shadow at epoch
Visualization orbit readout
Latitude
Unknown
Longitude
Unknown
Altitude
Unknown
Speed
Unknown
Apparent Right ascension
Unknown
Apparent Declination
Unknown
Sunlit
N/A
Visualization observer readout
Local Sidereal Time
07:48:03
Azimuth
Unknown
Elevation
Unknown
Doppler factor
Unknown
Orbital elements
Apogee altitude
485.899 km
Perigee altitude
484.083 km
Semi-major axis
6,863.128 km
Eccentricity
0.00013
Inclination
43.0009°
RAAN
171.9244°
Arg. of periapsis
271.0962°
True anomaly
88.98896°
Mean anomaly
88.9738°
Eccentric anomaly
88.98138°
Mean motion
3.81733 °/min
Orbital period
94.31 mins
BSTAR
0.000047621
Loading maneuver chart data...
Computing Atmospheric mass density...
Loading historical data...
Loading historical data...
Loading historical data...
Loading historical data...
Loading historical data...
Loading historical data...
Loading historical data...

Documentation

Showing up to 5 results
|